Simultaneous Nadir Overpasses (SNOs) Predictions

Prediction of SNOs between AQUA and NOAA-19 Satellite Orbit:

Table of predicted SNOs for the next 14.0 days since TLE Epoch: 3/6/2020
Index Date (AQUA) Time (AQUA) Lat,Lon (AQUA) SZA (AQUA ) Date (NOAA-19) Time (NOAA-19) Lat,Lon (NOAA-19) SZA (NOAA-19 ) Distance(km) Time Diff (sec)
1 03/09/2020 00:24:51 79.93, 143.73 85.86 03/09/2020 00:24:50 79.94, 143.58 85.89 3.08 1
2 03/11/2020 05:58:34 -79.94,-119.73 95.02 03/11/2020 05:58:16 -79.93,-119.81 95.01 1.71 18
3 03/11/2020 06:48:01 79.95, 47.76 85.00 03/11/2020 06:49:10 79.95, 47.65 84.98 2.30 69
4 03/13/2020 11:32:16 79.91, -22.95 84.05 03/13/2020 11:31:30 79.93, -22.99 84.10 2.71 46
5 03/13/2020 12:21:44 -79.96, 144.27 95.88 03/13/2020 12:22:36 -79.93, 144.22 95.92 3.37 52
6 03/15/2020 17:05:59 -79.92, 73.52 96.82 03/15/2020 17:04:56 -79.92, 73.52 96.80 0.68 63
7 03/15/2020 17:55:26 79.94,-118.98 83.20 03/15/2020 17:55:50 79.94,-118.92 83.18 1.16 24
8 03/17/2020 23:29:08 -79.92, -22.25 97.73 03/17/2020 23:29:15 -79.94, -22.19 97.73 2.29 7
9 03/20/2020 05:02:50 79.91, 74.45 81.35 03/20/2020 05:02:30 79.93, 74.49 81.38 2.84 20




NCC Satellite Simultaneous Nadir Overpasses (SNOs) Prediction Service
